Date String (YYYY-MM-DD hh:mm:ss) UTC,Instrument flags,absolute air pressure of the measurement (hPa),sample flow rate (lpm),inlet stack bypass flow (lpm),air temperature of the measurement (°C),ambient temperature measured by the external sensor (°C),aerosol sample conditioner tube jacket temperature (°C),OPC LED temperature (°C),internal box temperature (°C),relative humidity of the measurement (%),span deviation,mass concentration of particles derived from Lorenz-Mie calculation of OPC scattering (μg/m³),mass concentration of particles derived from Lorenz-Mie calculation of OPC scattering (μg/m³),mass concentration of particles derived from Lorenz-Mie calculation of OPC scattering (μg/m³)
DateTimeUTC,F1_M11,P_M11,Q1_M11,Q2_M11,T1_M11,T2_M11,T3_M11,T4_M11,T5_M11,U1_M11,ZSPAN_M11,X0_M11,X2_M11,X1_M11
2024-05-21 00:00:00,SystemResetWarning,0821.1,4.98,000.00,030.7,030.2,000.0,038.9,032.5,020.2,0000.0,0020.73,0005.64,0003.96
2024-05-21 00:01:00,SystemResetWarning,0821.0,5.01,000.00,030.8,030.2,000.0,038.9,032.5,020.0,0000.0,0022.89,0005.68,0003.95
2024-05-21 00:02:00,SystemResetWarning,0821.0,5.00,000.00,030.8,030.3,000.0,039.0,032.5,019.6,0000.0,0024.46,0005.70,0003.93
2024-05-21 00:03:00,SystemResetWarning,0820.9,5.01,000.00,030.8,030.3,000.0,039.0,032.6,019.7,0000.0,0024.61,0005.74,0003.92
2024-05-21 00:04:00,SystemResetWarning,0821.0,5.01,000.00,030.9,030.3,000.0,039.0,032.6,019.6,0000.0,0023.98,0005.68,0003.92
2024-05-21 00:05:00,SystemResetWarning,0821.1,5.01,000.00,030.9,030.3,000.0,039.1,032.6,019.7,0000.0,0022.63,0005.63,0003.90
2024-05-21 00:06:00,SystemResetWarning,0821.1,4.99,000.00,030.9,030.4,000.0,039.1,032.6,019.4,0000.0,0021.69,0005.60,0003.91
2024-05-21 00:07:00,SystemResetWarning,0821.1,4.99,000.00,030.9,030.4,000.0,039.1,032.7,019.8,0000.0,0021.25,0005.55,0003.90
2024-05-21 00:08:00,SystemResetWarning,0821.1,4.99,000.00,030.9,030.2,000.0,039.2,032.5,019.8,0000.0,0021.86,0005.52,0003.90
2024-05-21 00:09:00,SystemResetWarning,0821.0,5.00,000.00,030.6,028.0,000.0,039.2,031.4,020.3,0000.0,0021.43,0005.50,0003.90
2024-05-21 00:10:00,SystemResetWarning,0821.0,5.01,000.00,030.2,026.9,000.0,039.2,030.8,020.8,0000.0,0021.66,0005.49,0003.89
2024-05-21 00:11:00,SystemResetWarning,0821.1,5.02,000.00,030.0,027.1,000.0,039.1,030.8,021.0,0000.0,0021.47,0005.53,0003.90
2024-05-21 00:12:00,SystemResetWarning,0821.0,4.99,000.00,030.0,027.5,000.0,038.9,031.0,021.2,0000.0,0020.06,0005.49,0003.91
2024-05-21 00:13:00,SystemResetWarning,0820.9,5.00,000.00,030.0,027.9,000.0,038.8,031.3,021.3,0000.0,0019.55,0005.43,0003.92
2024-05-21 00:14:00,SystemResetWarning,0821.0,5.00,000.00,030.0,028.2,000.0,038.7,031.4,021.1,0000.0,0019.69,0005.40,0003.92
2024-05-21 00:15:00,SystemResetWarning,0821.1,5.01,000.00,030.0,028.5,000.0,038.7,031.5,021.2,0000.0,0020.28,0005.45,0003.92
2024-05-21 00:16:00,SystemResetWarning,0820.9,5.00,000.00,030.0,028.7,000.0,038.7,031.6,021.3,0000.0,0020.25,0005.50,0003.93
2024-05-21 00:17:00,SystemResetWarning,0821.0,4.99,000.00,030.1,028.9,000.0,038.6,031.7,021.3,0000.0,0020.06,0005.49,0003.93
2024-05-21 00:18:00,SystemResetWarning,0821.1,4.99,000.00,030.1,029.1,000.0,038.6,031.8,021.4,0000.0,0020.99,0005.50,0003.94
2024-05-21 00:19:00,SystemResetWarning,0821.1,5.00,000.00,030.2,029.2,000.0,038.6,031.9,021.3,0000.0,0020.48,0005.55,0003.95
2024-05-21 00:20:00,SystemResetWarning,0821.1,5.02,000.00,030.2,029.4,000.0,038.6,031.9,021.2,0000.0,0020.26,0005.52,0003.95
2024-05-21 00:21:00,SystemResetWarning,0821.2,5.00,000.00,030.2,029.5,000.0,038.6,032.0,021.1,0000.0,0020.39,0005.50,0003.95
2024-05-21 00:22:00,SystemResetWarning,0821.2,5.00,000.00,030.3,029.6,000.0,038.6,032.0,021.1,0000.0,0020.46,0005.51,0003.95
2024-05-21 00:23:00,SystemResetWarning,0821.1,5.00,000.00,030.3,029.6,000.0,038.6,032.1,021.1,0000.0,0020.13,0005.51,0003.94
2024-05-21 00:24:00,SystemResetWarning,0821.2,4.99,000.00,030.4,029.7,000.0,038.6,032.1,021.1,0000.0,0019.38,0005.55,0003.93
2024-05-21 00:25:00,SystemResetWarning,0821.2,5.00,000.00,030.4,029.8,000.0,038.6,032.1,021.2,0000.0,0019.16,0005.51,0003.92
2024-05-21 00:26:00,SystemResetWarning,0821.2,5.00,000.00,030.4,029.8,000.0,038.7,032.2,021.2,0000.0,0019.04,0005.51,0003.92
2024-05-21 00:27:00,SystemResetWarning,0821.2,5.00,000.00,030.5,029.9,000.0,038.7,032.2,021.3,0000.0,0019.06,0005.53,0003.92
2024-05-21 00:28:00,SystemResetWarning,0821.1,5.01,000.00,030.5,029.9,000.0,038.7,032.2,021.3,0000.0,0019.31,0005.52,0003.92
2024-05-21 00:29:00,SystemResetWarning,0821.0,5.01,000.00,030.5,030.0,000.0,038.7,032.3,021.2,0000.0,0019.14,0005.54,0003.91
2024-05-21 00:30:00,SystemResetWarning,0820.8,5.00,000.00,030.6,030.0,000.0,038.8,032.3,021.2,0000.0,0019.35,0005.52,0003.90
2024-05-21 00:31:00,SystemResetWarning,0820.8,4.99,000.00,030.6,030.0,000.0,038.8,032.3,021.3,0000.0,0020.20,0005.47,0003.90
2024-05-21 00:32:00,SystemResetWarning,0820.7,5.00,000.00,030.6,030.1,000.0,038.8,032.3,021.4,0000.0,0020.07,0005.51,0003.90
2024-05-21 00:33:00,SystemResetWarning,0820.7,5.00,000.00,030.7,030.1,000.0,038.9,032.4,021.2,0000.0,0019.65,0005.49,0003.90
2024-05-21 00:34:00,SystemResetWarning,0820.8,5.00,000.00,030.7,030.1,000.0,038.9,032.4,021.0,0000.0,0019.85,0005.47,0003.90
2024-05-21 00:35:00,SystemResetWarning,0820.9,5.00,000.00,030.7,030.1,000.0,038.9,032.4,021.1,0000.0,0019.57,0005.40,0003.90
2024-05-21 00:36:00,SystemResetWarning,0821.1,5.00,000.00,030.7,030.2,000.0,038.9,032.4,021.2,0000.0,0018.72,0005.43,0003.91
2024-05-21 00:37:00,SystemResetWarning,0821.1,5.00,000.00,030.8,030.2,000.0,039.0,032.5,021.2,0000.0,0018.27,0005.45,0003.92
2024-05-21 00:38:00,SystemResetWarning,0821.3,5.00,000.00,030.8,030.2,000.0,039.0,032.5,021.2,0000.0,0018.38,0005.45,0003.91
2024-05-21 00:39:00,SystemResetWarning,0821.3,5.00,000.00,030.8,030.2,000.0,039.0,032.5,021.1,0000.0,0018.56,0005.49,0003.90
2024-05-21 00:40:00,SystemResetWarning,0821.5,5.00,000.00,030.8,030.3,000.0,039.0,032.5,021.0,0000.0,0018.27,0005.53,0003.90
2024-05-21 00:41:00,SystemResetWarning,0821.1,5.00,000.00,030.8,030.3,000.0,039.0,032.6,021.0,0000.0,0018.91,0005.52,0003.90
2024-05-21 00:42:00,SystemResetWarning,0821.1,4.99,000.00,030.9,030.3,000.0,039.1,032.6,021.0,0000.0,0018.46,0005.55,0003.89
2024-05-21 00:43:00,SystemResetWarning,0821.0,5.01,000.00,030.9,030.3,000.0,039.1,032.6,020.9,0000.0,0018.13,0005.52,0003.88
2024-05-21 00:44:00,SystemResetWarning,0821.0,5.00,000.00,030.9,030.3,000.0,039.1,032.6,020.9,0000.0,0018.18,0005.51,0003.89
2024-05-21 00:45:00,SystemResetWarning,0821.1,5.00,000.00,030.9,030.3,000.0,039.1,032.6,020.9,0000.0,0017.69,0005.46,0003.88
2024-05-21 00:46:00,SystemResetWarning,0821.1,5.00,000.00,030.9,030.0,000.0,039.2,032.3,021.0,0000.0,0017.32,0005.50,0003.88
2024-05-21 00:47:00,SystemResetWarning,0820.8,5.00,000.00,030.5,027.7,000.0,039.2,031.2,021.4,0000.0,0017.52,0005.54,0003.87
2024-05-21 00:48:00,SystemResetWarning,0820.9,5.01,000.00,030.1,026.8,000.0,039.2,030.7,022.0,0000.0,0017.58,0005.52,0003.85
2024-05-21 00:49:00,SystemResetWarning,0821.0,5.00,000.00,029.9,027.0,000.0,039.0,030.7,022.3,0000.0,0017.93,0005.49,0003.85
2024-05-21 00:50:00,SystemResetWarning,0821.0,5.00,000.00,029.9,027.4,000.0,038.9,031.0,022.3,0000.0,0018.00,0005.50,0003.86
2024-05-21 00:51:00,SystemResetWarning,0820.9,5.00,000.00,029.9,027.8,000.0,038.8,031.2,022.3,0000.0,0019.02,0005.52,0003.85
2024-05-21 00:52:00,SystemResetWarning,0821.0,5.00,000.00,029.9,028.1,000.0,038.7,031.4,022.1,0000.0,0021.32,0005.65,0003.87
2024-05-21 00:53:00,SystemResetWarning,0821.1,5.00,000.00,030.0,028.4,000.0,038.6,031.5,022.0,0000.0,0022.84,0005.74,0003.88
2024-05-21 00:54:00,SystemResetWarning,0821.1,5.00,000.00,030.0,028.6,000.0,038.6,031.6,022.0,0000.0,0024.72,0005.92,0003.91
2024-05-21 00:55:00,SystemResetWarning,0821.1,5.00,000.00,030.0,028.8,000.0,038.6,031.7,021.9,0000.0,0026.02,0006.04,0003.92
2024-05-21 00:56:00,SystemResetWarning,0821.1,5.00,000.00,030.1,029.0,000.0,038.5,031.8,021.8,0000.0,0027.92,0006.18,0003.94
2024-05-21 00:57:00,SystemResetWarning,0821.2,5.00,000.00,030.1,029.2,000.0,038.5,031.8,022.0,0000.0,0030.29,0006.33,0003.97
2024-05-21 00:58:00,SystemResetWarning,0821.2,5.00,000.00,030.1,029.3,000.0,038.5,031.9,022.1,0000.0,0032.82,0006.39,0003.98
2024-05-21 00:59:00,SystemResetWarning,0821.2,5.00,000.00,030.2,029.4,000.0,038.5,031.9,022.1,0000.0,0034.81,0006.52,0004.00
